Location: Castelbiague
(43.0361°N, 0.9246°E)
Time: 10:33:17
(UTC+00:00)

Cosmos 1110 Rocket - Pass Details

Date: 17 June 2021
Orbit: 752 x 782 km, 74.0° (Epoch: 27 July)

Event Time Altitude Azimuth Distance (km) Brightness Sun altitude
Exits shadow 21:36:55 - 206° (SSW) 2,744 6.6 -16.1°
Reaches altitude 10° 21:38:09 10° 207° (SSW) 2,270 6.2 -16.2°
Maximum altitude 21:43:16 70° 292° (WNW) 804 4.2 -16.7°
Drops below altitude 10° 21:48:28 10° 16° (NNE) 2,299 7.1 -17.2°
Sets 21:50:52 0° 19° (NNE) 3,234 7.9 -17.5°
